Location: Monfort
(47.1967°N, 0.2115°W)
Time: 11:57:41
(UTC+00:00)

Cosmos 2058 Rocket - Pass Details

Date: 24 October 2020
Orbit: 610 x 639 km, 82.5° (Epoch: 27 November)

Event Time Altitude Azimuth Distance (km) Brightness Sun altitude
Rises 18:19:28 0° 179° (S) 2,909 6.5 -14.7°
Reaches altitude 10° 18:21:42 10° 176° (S) 2,011 5.7 -15.1°
Maximum altitude 18:26:06 63° 96° (E) 713 3.0 -15.8°
Drops below altitude 10° 18:30:35 10° 15° (NNE) 2,040 5.6 -16.6°
Sets 18:32:51 0° 13° (NNE) 2,955 6.4 -17.0°
